Wind_Speed
19 19 18 18 17 17 17 17 16 17 17 16 16 15 15 14 14 13 13 12 12 12 12 12 11 11 10 10 10 10 9 9 9 9 9 8 7 7 7 8 7 7 7 8 8 8 8 9 9 10 11 11 11 10 9 10 10 9 9 9 9 10 10 10 9 10 12 12 12 11 12 12 12 12 12 13 14 15 14 13 12 12 13 14 13
20 19 19 19 18 17 17 17 17 18 18 17 16 16 15 14 14 14 13 13 13 13 12 12 12 12 12 11 11 10 10 10 9 9 9 8 7 7 8 8 8 7 8 8 9 9 9 9 9 10 11 12 11 11 11 10 10 10 10 10 10 11 10 11 11 11 11 12 12 12 12 13 13 13 12 12 13 14 15 14 12 12 13 13 14
20 20 20 20 19 19 19 19 19 19 19 18 17 16 16 15 15 15 14 14 14 14 13 13 13 13 13 12 12 11 10 10 9 9 9 8 7 8 8 9 9 9 9 9 9 9 9 9 9 10 11 12 12 12 12 11 11 11 11 12 12 11 11 11 12 12 11 12 13 13 13 14 14 13 12 11 12 12 13 13 12 12 12 13 14
20 20 21 21 21 20 20 20 20 20 19 18 18 17 17 17 17 16 16 16 15 15 15 15 15 15 16 16 15 15 15 13 11 10 9 8 8 9 9 9 9 10 10 10 10 9 9 10 10 10 11 13 13 13 12 12 11 12 12 12 12 12 12 12 12 13 12 13 14 15 15 14 14 13 12 11 11 11 12 12 13 13 13 14 14
20 21 21 21 22 22 21 21 21 20 19 19 18 18 18 18 18 17 17 17 16 16 16 18 20 20 18 16 14 14 13 11 11 11 11 10 10 9 10 9 10 10 10 10 10 10 10 11 11 11 12 13 13 13 13 12 12 12 12 12 13 14 14 14 14 15 15 15 15 16 16 15 14 14 14 13 12 12 12 12 14 14 15 15 16
21 21 21 22 23 23 22 22 21 20 20 19 19 19 19 18 18 17 17 17 17 18 19 20 20 16 13 11 10 10 10 9 10 11 11 10 10 10 10 11 11 11 10 10 11 10 11 12 12 12 11 11 12 13 13 13 13 13 13 13 14 15 15 15 16 16 17 17 16 16 16 16 15 15 15 16 15 15 14 14 15 16 17 18 18
23 22 22 22 23 23 22 21 21 20 20 19 19 19 19 18 18 18 17 17 18 19 19 18 16 13 10 10 9 8 9 10 10 11 11 10 10 10 11 11 11 11 11 11 12 12 12 13 12 11 10 11 11 12 13 14 14 15 15 15 15 15 16 16 16 17 18 17 17 17 17 17 16 16 17 18 18 18 18 17 17 18 20 20 22
25 24 23 23 24 23 22 21 21 21 20 19 20 20 20 19 18 18 18 19 19 18 17 16 15 13 12 11 9 8 8 9 10 10 10 10 11 11 11 12 12 13 13 13 13 13 13 13 12 11 10 11 12 13 13 14 15 15 15 15 16 16 16 17 17 18 19 19 18 18 18 18 18 18 19 20 20 20 21 21 19 20 21 21 23
27 26 25 24 23 22 21 22 22 21 21 21 21 20 20 20 19 19 20 20 20 19 17 16 15 14 12 11 9 9 9 9 10 10 10 11 13 12 12 13 13 14 15 14 14 13 13 13 13 12 12 12 13 13 14 14 15 16 16 16 17 18 19 20 20 21 21 21 21 21 21 20 20 21 21 21 22 22 22 23 22 22 22 21 22
28 27 26 25 24 22 22 22 23 23 23 23 21 21 21 20 20 20 21 21 19 18 17 15 14 14 13 11 10 11 11 10 9 10 10 12 13 13 13 14 14 15 15 14 14 13 13 13 13 13 13 14 14 14 15 15 16 17 18 18 19 21 22 22 23 23 23 23 23 24 24 23 22 24 24 24 24 24 24 25 24 24 24 23 22
30 29 28 27 26 25 25 24 25 25 24 23 21 21 21 21 21 21 22 21 19 18 17 15 14 14 13 13 12 12 12 11 11 11 12 13 14 14 14 15 16 16 15 15 15 15 15 14 14 14 15 15 16 16 16 17 18 19 20 21 22 23 24 24 23 24 24 25 25 26 27 26 25 26 27 27 27 26 26 26 26 25 25 24 24
32 31 29 28 28 28 27 25 25 25 24 23 22 21 21 21 21 21 21 21 20 20 19 18 17 16 17 16 15 14 14 13 13 13 15 16 16 16 16 17 17 17 16 16 16 16 16 16 16 17 17 17 17 17 18 19 19 20 21 22 23 24 25 26 26 25 25 26 26 26 27 28 27 27 28 29 29 29 28 28 27 26 26 26 26
33 32 30 28 28 28 27 26 25 25 25 24 23 23 23 23 22 22 22 22 22 22 22 21 20 20 20 19 18 17 17 16 16 17 17 18 18 18 19 20 19 19 18 18 18 17 18 18 19 19 19 19 19 19 19 20 20 21 22 23 24 25 26 27 28 27 26 26 25 25 25 26 26 26 27 29 30 31 30 29 28 28 28 27 26
34 33 30 29 28 27 27 26 26 25 25 25 25 25 24 24 24 24 25 25 24 25 25 24 23 22 21 21 21 21 21 20 19 19 19 19 20 21 23 23 22 22 21 21 20 20 20 21 21 21 20 20 20 20 20 20 20 21 22 23 24 24 25 26 27 27 26 25 24 23 23 24 24 24 25 26 27 28 28 28 28 28 28 27 26
35 34 32 30 28 26 27 27 27 26 25 25 26 26 26 25 25 26 26 26 26 26 25 24 24 23 22 23 23 24 23 23 23 23 23 23 24 24 24 24 24 24 24 24 23 23 23 23 22 21 21 21 21 21 21 21 21 22 23 24 24 24 25 25 24 25 25 24 24 24 23 23 23 23 22 23 23 24 24 25 26 27 26 26 25
36 34 32 31 30 28 27 28 28 27 26 26 26 27 28 27 27 27 27 26 26 25 25 25 24 24 24 25 26 25 25 25 25 25 26 25 26 27 26 26 26 26 26 26 26 25 24 23 22 21 22 22 22 22 21 21 22 23 24 24 24 24 25 23 22 22 23 23 24 24 23 23 23 22 21 21 21 21 21 22 23 24 25 25 25
38 35 33 31 31 30 29 28 29 28 27 26 26 27 29 29 28 28 28 28 28 26 25 26 26 27 27 28 28 28 28 28 28 28 28 28 28 28 28 27 27 28 28 28 26 25 23 22 22 22 22 22 22 22 22 22 23 23 23 23 24 24 24 23 22 21 21 22 22 23 23 22 22 22 21 21 21 21 21 22 23 24 25 25 26
40 36 33 31 32 31 29 28 28 27 26 27 28 29 30 30 29 30 32 32 30 26 25 27 29 30 32 33 33 32 31 30 30 29 30 31 30 31 31 30 30 31 30 27 25 24 23 22 22 22 22 22 22 22 22 22 23 23 23 23 23 23 22 22 21 21 21 21 21 21 21 21 21 21 21 21 21 21 22 22 23 23 24 24 25
41 38 34 33 33 31 29 28 28 26 24 25 27 29 31 32 32 32 32 31 27 24 25 28 29 31 34 35 36 37 36 35 34 33 33 33 33 34 34 32 33 34 31 26 23 23 22 21 21 21 21 21 21 21 21 22 22 21 21 21 20 20 19 19 19 19 19 19 19 19 20 20 20 20 20 20 20 20 21 21 22 22 22 22 22
37 35 34 33 33 31 29 28 28 28 26 25 26 28 32 34 33 29 27 27 27 26 27 29 31 35 39 39 38 37 38 38 37 36 35 35 36 39 39 37 36 34 27 23 23 23 21 20 19 19 19 18 19 19 19 19 18 17 17 17 16 16 16 16 16 17 17 18 18 18 19 19 20 20 20 20 19 19 20 20 20 20 20 19 20
34 34 33 32 32 30 28 28 28 29 28 27 29 31 32 32 30 28 27 27 28 28 29 30 32 35 40 42 39 37 39 42 40 37 37 38 38 37 33 27 25 23 19 19 22 21 19 18 18 16 17 17 17 18 17 15 14 13 13 14 15 15 16 16 17 17 18 18 19 19 19 19 19 20 20 20 20 20 20 20 19 19 18 18 17
34 33 32 30 29 28 27 27 28 29 29 30 33 33 30 29 30 29 27 28 30 30 30 28 27 26 26 27 24 22 26 33 34 33 35 36 33 28 23 19 20 20 18 19 21 20 18 19 19 19 19 19 20 20 17 13 12 12 13 14 15 16 17 17 18 19 19 19 19 20 20 19 20 20 20 20 20 21 21 20 19 18 18 17 16
31 30 29 28 28 27 26 27 28 30 31 32 33 32 30 32 32 29 28 30 32 29 26 24 24 22 20 20 20 18 17 17 14 14 20 23 21 19 18 18 18 19 18 17 18 18 18 20 20 21 21 21 22 21 17 13 12 12 13 15 16 17 18 19 20 20 19 19 19 20 21 21 20 20 20 20 20 20 20 20 20 20 19 18 18
27 26 26 26 26 26 28 30 31 31 30 29 31 32 31 31 31 29 28 29 25 21 18 19 19 17 14 14 18 21 20 15 8 0 3 6 9 10 11 10 10 12 14 15 17 18 19 20 20 20 20 20 20 16 13 13 14 15 16 17 17 18 19 20 21 20 20 20 20 20 21 22 22 21 21 21 21 20 20 20 20 20 21 21 21
26 26 27 27 28 29 30 29 28 29 29 30 32 30 24 21 20 19 19 17 13 11 10 10 9 7 5 5 6 9 11 9 3 3 5 5 4 3 3 4 6 9 10 11 11 11 12 14 14 15 15 14 13 11 12 15 17 17 17 17 18 19 20 21 21 21 22 22 22 21 21 22 23 23 23 23 23 22 21 21 20 21 22 23 24
25 25 25 26 29 32 33 31 29 30 28 26 24 20 15 14 14 14 13 12 11 10 8 7 6 6 5 6 6 6 6 5 5 6 7 8 8 6 5 3 3 5 6 6 5 5 6 8 10 12 13 14 14 15 17 19 19 17 15 15 17 19 20 21 22 22 22 23 23 23 23 23 23 24 24 24 24 24 23 23 22 22 23 24 25
25 28 28 28 27 29 30 29 27 24 20 17 17 16 16 16 15 15 15 13 12 13 13 12 11 10 9 9 9 9 9 9 9 9 8 8 7 6 4 4 5 6 7 7 6 7 9 10 12 14 16 17 18 20 21 21 20 19 18 18 19 20 21 22 23 23 24 25 25 25 25 25 24 23 24 24 24 24 24 24 24 25 25 25 26
17 20 20 19 18 18 18 19 18 18 17 17 18 18 17 15 13 13 13 13 13 14 14 13 12 12 10 9 9 9 9 8 7 7 6 6 6 5 6 7 8 9 9 10 11 12 13 14 15 17 18 19 20 20 21 20 21 21 22 23 23 23 23 23 24 25 26 26 26 26 26 26 25 25 25 25 25 25 25 25 25 26 26 27 27
12 13 14 16 17 17 16 18 18 18 17 16 16 16 14 13 12 12 11 11 12 12 11 10 10 10 9 8 7 7 6 5 5 5 5 5 5 6 8 9 10 11 12 13 14 14 15 15 16 17 18 19 19 20 20 21 21 22 23 24 24 24 24 23 24 25 26 26 26 26 26 26 27 27 27 28 27 27 27 26 26 27 27 27 28
15 15 17 18 18 17 16 18 18 17 16 15 14 14 13 12 11 10 10 9 10 9 9 8 8 7 6 6 5 5 5 5 5 6 6 7 7 9 10 11 12 13 13 14 14 14 15 16 16 17 18 19 20 20 20 21 22 23 24 25 25 25 25 25 26 27 28 28 28 27 27 27 27 28 28 28 29 29 29 29 29 29 29 29 30
19 18 18 17 17 16 16 16 16 16 16 15 14 13 12 11 11 10 10 10 10 10 9 8 7 7 7 6 7 7 7 7 7 8 8 9 9 10 11 11 12 12 12 13 13 14 15 16 17 18 18 19 20 21 21 22 22 23 24 25 26 26 27 28 28 29 29 29 29 29 29 28 28 28 28 29 29 30 30 31 31 31 31 32 32
18 19 19 18 18 18 17 16 16 16 16 16 16 15 14 14 13 12 13 12 11 11 10 9 9 9 9 9 8 8 8 8 9 9 9 9 9 10 11 12 12 12 13 13 14 15 16 17 17 18 19 20 21 21 22 22 23 24 24 25 26 27 28 29 29 29 29 30 30 29 29 28 28 28 29 29 30 31 31 32 32 33 33 33 34
14 16 18 19 19 19 18 18 18 18 18 17 17 17 16 15 14 14 13 13 12 12 11 10 9 9 8 8 8 8 8 9 9 9 9 10 10 11 12 13 14 14 14 15 15 16 16 17 18 18 19 19 20 20 21 22 23 23 24 25 26 27 29 29 29 30 29 30 30 30 29 29 28 29 30 32 33 33 34 34 34 34 34 35 35
13 14 16 18 18 18 18 17 17 16 16 15 14 13 13 12 12 12 12 11 11 10 9 8 8 8 7 7 7 8 9 9 10 10 11 11 11 12 13 13 14 15 15 15 16 16 17 17 18 18 18 19 19 19 20 21 22 23 24 25 27 28 29 30 29 30 29 29 29 30 30 30 30 31 33 34 34 34 34 35 35 35 35 36 36
15 16 17 17 16 15 14 14 13 12 11 11 10 10 9 9 9 9 9 9 9 8 7 7 7 7 7 7 8 9 9 10 10 11 11 11 12 12 13 13 14 15 15 16 16 16 16 17 17 18 18 18 19 20 21 22 23 25 26 27 28 30 31 30 30 30 30 30 30 31 31 32 33 34 35 35 35 34 34 34 34 34 34 35 35
16 16 15 14 13 12 11 10 10 9 9 9 8 8 8 8 8 7 7 8 7 7 7 7 7 6 7 7 8 9 10 10 10 10 10 11 11 12 13 13 13 14 15 16 17 17 17 18 18 18 19 19 20 21 22 24 25 26 27 28 30 31 31 31 31 31 30 31 31 32 32 33 34 35 35 35 35 34 34 33 32 32 32 33 33
15 14 13 11 11 10 9 9 8 8 8 8 7 7 7 7 7 7 7 8 8 8 7 6 6 6 7 7 8 8 9 9 9 9 10 10 10 11 12 13 14 15 16 18 19 19 20 20 20 20 21 21 22 23 24 25 26 27 28 29 31 32 32 32 31 31 31 31 31 32 33 34 35 35 35 35 34 33 32 32 31 31 31 31 32
13 12 11 11 10 9 9 9 8 8 8 8 8 8 8 7 7 8 8 9 8 8 6 5 5 5 6 6 6 8 9 9 9 9 10 10 11 12 13 14 14 16 17 18 19 20 21 21 22 23 23 24 24 25 26 27 28 29 30 31 32 33 34 34 34 34 34 34 35 35 36 37 38 38 37 36 34 33 32 32 31 31 31 32 32
12 11 11 10 10 10 9 9 9 8 8 8 7 7 7 7 7 8 8 9 8 7 6 5 5 5 6 6 6 8 9 9 9 9 10 11 12 14 15 16 17 18 19 20 21 22 22 23 24 24 25 25 26 27 28 29 30 31 32 32 33 34 34 35 36 36 37 38 38 39 40 41 40 40 38 37 36 34 33 33 33 33 33 33 32
11 11 11 11 11 10 10 9 9 8 8 7 7 7 7 7 8 8 9 8 7 6 6 6 5 6 6 6 8 9 10 10 11 11 12 13 14 16 17 19 20 21 22 23 23 24 25 25 25 26 26 26 26 27 28 29 30 31 32 33 33 34 35 36 37 38 39 40 41 41 42 41 40 38 37 36 35 35 34 34 34 34 34 33 32
11 11 10 10 10 9 8 8 8 7 7 7 7 7 7 7 8 9 9 8 7 6 6 6 6 6 6 7 9 10 11 12 12 13 13 14 15 17 18 19 20 21 22 23 24 24 25 26 27 27 27 28 28 28 29 30 31 32 32 33 34 35 36 37 38 39 40 41 41 41 40 39 37 36 36 35 35 34 34 34 34 34 33 32 31
13 12 11 10 9 8 7 7 7 7 7 7 7 7 7 8 9 9 9 8 7 7 6 6 6 7 8 9 10 11 12 14 15 15 16 17 18 19 19 20 21 22 22 23 23 24 24 25 26 26 27 28 28 29 30 31 32 32 33 34 35 36 37 38 39 39 40 40 39 39 38 37 36 35 34 34 34 34 34 33 33 32 31 31 30
11 11 10 10 9 8 7 7 7 7 7 7 7 7 7 8 9 9 8 8 7 7 6 6 7 8 9 10 11 13 14 15 16 17 18 19 20 21 21 22 22 23 23 24 24 24 24 24 25 26 26 27 28 29 30 31 31 32 33 34 35 36 36 36 37 37 37 37 36 36 35 35 34 33 33 33 33 32 31 30 30 29 29 29 29
10 10 10 9 9 8 7 7 7 7 7 7 7 7 8 8 8 8 8 7 7 6 6 7 8 9 10 11 13 14 15 16 17 18 19 20 21 22 22 23 23 23 23 24 24 25 25 26 26 27 27 27 28 29 29 30 30 30 31 32 32 33 33 33 34 34 34 34 33 33 33 32 31 31 30 30 29 28 27 26 26 26 26 27 27
9 9 8 8 7 6 6 7 7 7 8 7 7 8 8 8 8 8 8 7 6 6 7 8 9 10 10 11 13 14 15 16 17 18 19 20 20 21 22 22 22 23 23 23 24 25 26 27 28 28 28 28 28 29 29 29 29 28 29 29 30 30 30 31 31 31 31 31 31 30 30 29 29 28 27 26 26 26 25 25 24 24 24 24 24
8 7 7 6 6 7 7 8 8 8 8 8 7 8 9 9 8 8 8 7 6 6 7 8 9 10 11 12 13 14 16 17 18 19 20 19 19 19 20 20 21 21 22 23 24 25 26 27 27 27 27 27 28 28 28 28 27 27 27 28 28 28 29 29 29 29 28 28 28 27 27 26 26 26 25 25 25 25 24 24 23 23 23 23 23
6 6 6 6 7 8 8 8 8 8 8 8 8 8 9 9 8 8 7 6 6 7 8 9 10 12 13 14 15 15 16 17 18 19 19 18 18 18 19 19 20 21 22 23 25 26 27 27 27 27 27 27 26 27 27 27 27 27 27 27 27 28 28 28 28 27 27 26 26 26 25 25 24 24 24 24 24 23 23 22 22 23 23 24 24
7 7 7 8 8 8 8 8 8 8 8 8 8 8 9 9 8 8 8 7 7 8 10 11 12 13 14 15 15 15 15 16 16 17 18 18 19 20 20 21 22 23 24 25 25 26 27 28 28 28 28 28 28 27 27 27 27 27 27 27 27 27 27 27 27 26 26 25 25 24 23 23 22 22 22 21 21 21 21 22 23 24 24 24 24
7 7 7 7 8 8 8 8 8 8 8 8 9 9 10 9 9 9 9 9 10 10 12 12 13 13 13 14 14 14 14 14 15 17 18 19 20 22 23 24 25 25 26 26 26 26 27 28 28 29 29 29 29 29 29 28 28 28 27 27 27 26 26 25 24 24 23 22 21 21 20 19 19 19 19 20 20 21 22 22 23 23 23 23 23
8 7 7 7 8 8 8 8 8 8 9 9 9 10 10 10 9 9 9 10 10 11 12 13 13 13 13 14 14 14 14 14 15 16 17 18 20 21 22 23 24 25 25 25 25 25 25 26 27 27 28 28 29 29 29 28 28 27 27 26 25 24 24 23 22 22 21 20 19 18 18 17 18 19 19 20 21 22 22 22 22 22 21 21 20
9 9 8 8 8 9 9 9 9 9 9 9 9 10 10 11 11 11 11 11 12 12 13 13 13 14 14 15 15 16 16 16 17 18 18 19 20 20 21 22 23 23 24 25 25 24 24 24 25 25 26 26 26 27 27 27 26 26 25 25 24 23 23 22 21 21 20 19 19 18 18 18 18 19 19 20 21 21 21 21 20 19 19 18 17
Wind_Direction
212 211 212 211 209 210 212 215 217 219 220 221 219 217 218 216 216 218 217 216 215 211 210 213 216 215 212 212 216 220 222 223 226 228 228 229 230 231 231 229 231 235 238 243 244 243 245 252 258 263 269 272 276 278 278 279 281 287 298 303 300 299 300 301 305 311 313 315 317 316 319 321 320 321 323 323 322 319 314 312 308 303 301 302 304
216 215 215 215 213 212 214 216 219 221 224 224 222 221 221 218 219 221 221 220 219 217 217 220 224 224 221 218 216 218 220 221 224 226 227 227 226 225 225 225 228 231 235 243 249 251 251 254 259 262 266 269 272 274 274 276 281 286 293 297 297 297 298 299 305 312 313 312 313 314 318 321 321 322 324 322 320 320 318 317 312 307 305 305 304
217 218 218 218 217 215 215 216 219 222 225 226 224 223 223 223 222 222 223 224 224 225 225 225 227 229 230 227 220 218 221 223 229 232 230 226 224 226 226 225 227 230 237 245 251 254 256 259 265 269 271 273 275 277 278 281 285 288 290 292 294 296 298 300 303 308 309 307 307 309 311 314 315 316 318 316 313 314 315 315 314 309 305 304 302
218 219 220 220 219 217 216 217 220 222 225 227 225 223 224 226 227 225 226 228 228 228 230 232 232 229 229 227 219 217 217 214 218 230 233 230 226 229 232 230 231 234 240 248 253 255 259 263 269 273 274 275 278 280 280 283 285 286 287 290 293 294 295 295 296 298 300 299 298 300 302 304 306 307 307 305 304 303 305 307 309 308 305 302 301
220 219 219 220 221 219 217 218 220 221 223 226 225 224 225 227 230 229 229 231 233 232 233 234 232 230 230 230 230 234 235 225 220 224 226 224 221 227 236 235 235 238 241 247 252 255 260 265 268 270 271 274 277 280 282 282 282 283 285 290 293 292 289 287 289 292 294 294 294 295 295 296 298 298 297 296 296 296 296 298 301 303 304 303 302
221 220 218 218 221 221 217 218 220 221 222 223 223 224 225 228 232 233 233 235 238 239 240 241 243 247 252 256 263 272 277 270 253 244 244 239 226 222 234 238 238 239 240 244 247 250 255 261 266 269 271 273 275 278 280 281 281 282 286 291 293 291 287 284 287 290 292 293 295 295 293 293 292 291 291 291 291 292 292 295 298 299 300 300 299
221 219 216 217 220 221 218 217 218 220 221 222 223 225 227 228 232 234 235 238 240 243 247 254 264 272 271 265 267 273 280 283 273 260 256 250 235 226 232 239 241 243 242 242 244 247 254 263 269 271 273 275 277 280 282 283 284 285 287 290 291 289 287 285 285 288 290 292 294 294 291 289 289 287 287 287 288 289 290 292 295 297 299 300 299
221 219 216 216 218 220 219 217 216 217 219 222 224 226 228 230 232 233 235 238 241 244 250 258 265 270 267 264 264 263 273 287 281 263 250 244 239 235 235 238 244 247 247 248 249 253 259 265 270 273 275 277 277 279 279 280 282 284 285 286 288 289 289 287 286 287 288 290 291 290 288 287 286 284 283 284 285 286 287 289 291 294 297 299 299
218 219 218 217 217 218 219 218 217 216 217 220 224 225 227 230 231 232 234 238 242 247 250 253 258 262 262 260 259 261 268 276 270 259 250 248 249 248 245 245 248 249 251 255 257 260 261 264 269 273 275 273 272 273 275 277 280 282 283 284 285 287 287 288 289 289 290 291 291 290 289 287 285 282 281 281 282 282 283 285 288 291 294 295 297
215 218 218 217 216 217 218 219 219 218 218 220 223 224 227 230 231 232 235 238 242 248 251 252 255 260 259 254 254 261 266 267 263 260 257 256 257 255 252 253 254 255 259 262 264 265 265 267 272 276 275 274 276 277 277 279 283 284 284 283 283 284 286 287 290 292 293 295 295 294 292 290 285 282 279 278 278 279 280 282 284 288 290 292 294
217 217 217 215 214 214 215 217 218 218 219 220 222 225 229 233 235 237 240 242 245 248 248 247 251 256 255 250 249 255 260 258 256 259 260 260 260 257 254 255 257 258 260 261 263 266 267 269 273 275 276 278 279 279 278 281 285 287 287 287 287 287 288 289 291 294 296 296 297 296 295 292 288 284 281 278 276 276 277 279 281 285 287 288 290
220 220 219 217 216 215 215 217 220 221 221 222 224 227 231 236 239 241 244 246 248 250 251 249 249 252 252 251 251 255 257 253 252 258 261 260 259 258 258 259 259 258 258 259 262 266 269 273 276 277 279 280 279 279 280 283 286 289 290 292 292 293 294 294 295 295 294 294 294 295 294 293 291 288 284 281 278 276 277 278 280 283 285 287 289
222 224 222 220 219 219 217 217 221 225 227 226 226 227 230 235 239 243 246 248 250 252 254 253 251 251 253 255 257 258 256 252 252 256 258 257 256 258 260 262 262 261 260 260 261 262 266 271 275 277 278 278 278 277 278 281 285 289 292 293 294 295 296 297 297 297 295 295 295 295 295 295 294 292 289 285 281 279 278 278 280 282 285 287 288
221 223 223 222 222 222 222 221 221 225 229 231 232 231 231 233 237 241 245 247 249 251 253 256 257 257 258 261 262 262 260 257 256 255 254 254 255 258 261 261 261 261 261 260 257 257 262 268 271 273 275 276 276 275 276 281 285 288 291 292 292 292 294 295 296 297 297 297 298 299 299 299 299 298 294 290 286 282 279 278 280 282 285 286 287
219 221 222 222 223 223 225 227 225 226 228 232 234 235 234 234 235 239 244 248 251 253 255 258 260 262 264 264 264 263 262 260 257 255 254 255 257 260 261 260 260 260 260 258 256 257 263 268 268 269 271 272 272 274 278 283 285 286 288 289 288 289 291 292 293 294 296 297 298 300 300 300 301 301 299 296 292 287 283 281 282 283 285 286 287
218 220 220 220 222 222 223 227 229 227 225 228 232 235 235 235 235 238 243 246 249 253 256 258 260 261 262 262 261 261 261 261 260 258 257 256 257 258 258 258 258 258 257 256 257 260 264 265 265 266 268 270 273 277 281 283 284 286 287 287 287 288 290 289 288 289 291 293 295 297 298 299 300 301 301 299 297 293 289 287 286 285 286 287 289
218 218 218 217 219 220 220 223 227 228 226 229 234 237 237 238 239 241 243 244 245 248 253 255 257 259 259 258 258 257 257 258 259 259 259 258 257 257 256 256 256 255 254 254 255 259 261 262 264 267 270 273 277 280 282 283 285 287 288 287 287 289 290 288 288 289 290 292 294 296 297 297 298 299 300 300 298 296 294 291 290 289 290 290 290
217 214 216 216 216 217 219 220 223 228 233 237 240 241 240 241 244 245 244 243 242 244 248 253 257 260 259 258 257 257 256 256 256 257 259 259 258 258 257 257 256 254 252 250 251 253 256 260 264 268 272 276 279 281 283 285 287 288 288 287 288 289 289 290 291 293 294 295 297 298 299 300 302 303 304 304 303 302 299 297 295 293 293 292 292
217 210 211 215 215 214 217 218 221 228 239 242 241 240 242 243 244 246 248 251 253 253 255 258 260 261 260 258 256 255 255 255 255 256 257 258 260 261 258 256 256 254 248 243 245 249 253 259 264 269 274 278 280 283 285 286 287 287 287 288 289 290 290 291 293 295 296 299 300 301 302 304 305 306 306 306 306 303 300 298 296 295 294 293 294
219 211 209 213 214 213 215 217 219 226 236 241 240 240 241 243 245 247 252 259 263 262 262 262 263 264 262 259 256 255 255 256 256 256 256 258 260 261 258 255 254 250 239 235 244 251 254 259 264 271 278 282 285 286 285 285 286 287 288 289 289 289 289 290 291 293 294 296 297 298 299 299 300 301 302 303 302 299 297 295 295 294 294 294 295
218 215 210 209 211 213 215 216 219 226 234 238 241 244 245 248 253 254 254 257 260 260 262 265 268 268 262 254 252 255 255 254 254 255 255 256 256 255 254 250 244 238 230 235 246 250 252 257 264 273 281 286 290 290 286 283 285 289 291 292 291 290 290 291 293 293 293 294 295 295 296 297 298 299 301 301 301 298 295 294 293 292 292 292 292
218 215 210 207 210 214 216 217 220 227 232 236 243 250 253 255 256 256 255 256 258 258 259 264 270 274 268 258 257 266 263 255 250 244 241 242 244 245 241 230 225 231 237 239 242 246 253 261 269 275 278 282 287 287 285 283 288 293 294 294 294 294 295 295 294 293 293 295 296 297 297 298 299 300 301 301 300 299 295 292 288 286 285 285 285
214 210 206 205 208 213 218 221 223 228 232 235 243 251 257 257 256 255 252 251 253 256 259 264 267 272 275 269 262 268 281 282 266 233 220 224 227 225 221 217 220 230 238 239 242 251 261 268 274 277 277 276 277 281 284 288 293 295 295 296 297 298 298 295 292 291 292 294 295 296 297 297 296 297 297 297 297 297 295 291 287 283 280 280 280
207 206 207 209 211 213 219 223 225 229 234 238 242 247 254 257 255 252 250 249 252 256 259 261 261 265 274 271 257 256 269 286 299 269 168 205 216 217 220 224 229 236 242 248 253 258 263 268 272 275 275 274 274 280 292 298 299 299 299 299 298 294 289 286 285 287 289 291 291 291 293 293 294 294 294 294 294 294 293 292 289 285 280 277 276
212 214 215 217 220 219 217 218 222 228 233 236 239 242 244 244 240 238 240 242 238 233 235 241 245 250 262 264 247 242 250 257 245 114 101 109 130 163 206 230 239 241 244 248 252 256 261 263 265 267 268 269 272 280 289 294 296 297 296 293 288 283 281 282 285 287 290 291 293 294 295 296 297 297 297 296 295 293 292 291 290 288 284 280 277
224 224 219 220 223 221 218 218 222 226 225 225 228 227 215 205 203 201 199 197 190 179 166 154 148 141 147 158 159 164 176 172 146 125 116 112 110 109 117 143 214 240 244 247 251 262 267 265 266 268 270 274 280 284 288 292 296 297 294 287 282 281 284 288 291 293 295 297 300 302 303 303 303 302 302 300 298 295 292 291 290 289 288 285 282
223 218 214 216 217 214 211 211 213 211 203 194 192 187 180 177 177 175 172 167 159 151 142 136 137 138 138 137 134 133 135 134 132 131 130 129 132 138 155 193 229 245 253 262 268 272 274 274 277 280 283 287 291 292 293 297 300 302 302 299 296 295 296 298 300 302 302 303 305 305 305 304 303 301 299 297 295 294 292 291 291 289 287 286 284
194 186 183 185 181 177 178 177 175 171 167 166 169 170 169 168 166 166 164 157 151 151 151 149 151 155 156 153 149 148 148 149 153 160 165 170 178 193 215 233 245 253 260 266 269 271 274 278 281 284 288 291 293 295 298 302 304 305 305 305 306 307 308 309 309 307 306 305 305 305 303 301 299 297 294 292 290 289 287 286 286 286 285 284 284
149 137 135 138 138 139 145 148 149 152 156 159 163 165 166 168 168 167 167 166 166 168 170 172 175 177 179 181 181 181 185 191 198 208 219 225 231 240 248 255 260 265 268 272 275 276 278 281 284 287 290 293 296 299 302 304 304 304 304 306 308 309 310 310 308 305 304 304 303 301 300 299 297 295 293 291 289 286 284 283 282 282 282 282 283
138 135 137 137 135 137 140 142 144 149 152 156 162 167 169 172 176 182 189 194 196 196 194 196 200 203 205 209 212 217 225 232 239 245 250 254 258 262 265 268 270 273 277 280 283 285 287 288 290 291 294 296 298 300 300 301 303 304 305 306 307 308 307 306 305 305 304 304 303 303 302 300 299 297 295 293 291 290 288 287 285 284 283 282 282
138 137 135 135 136 139 141 143 146 150 152 155 160 166 173 179 186 197 206 211 214 216 218 223 229 233 237 241 244 248 251 254 259 261 263 267 270 271 272 273 275 279 283 285 288 290 291 292 293 294 295 297 298 299 300 301 302 303 303 303 303 303 303 303 303 303 303 302 302 302 301 301 301 301 300 300 300 299 298 296 294 293 291 288 287
152 145 141 142 143 144 146 150 154 157 162 167 171 176 184 190 197 205 213 218 222 225 229 233 237 241 246 250 255 261 266 267 269 271 272 274 275 276 277 279 280 283 284 285 286 287 287 289 291 293 294 296 297 299 300 300 301 301 301 301 301 299 298 298 297 298 298 299 300 300 301 302 303 304 305 306 306 306 305 304 303 301 299 297 294
165 156 155 159 159 159 163 168 171 174 178 181 183 186 191 197 203 209 215 220 225 228 232 237 243 248 254 261 267 271 273 274 275 275 275 275 276 278 279 279 280 281 282 283 285 286 288 290 292 293 294 295 296 298 299 300 300 300 299 299 297 295 294 294 295 296 297 298 299 300 301 302 303 305 308 310 309 308 307 306 306 305 304 302 300
163 162 166 169 168 168 171 175 177 180 182 184 187 191 196 202 208 214 219 223 227 231 235 241 246 252 256 261 266 266 267 268 270 270 273 276 278 280 281 283 287 289 290 292 293 294 295 296 296 296 297 297 297 297 297 296 295 294 293 292 291 290 291 293 295 297 298 299 300 300 301 300 301 304 307 308 308 307 306 305 304 303 302 301 300
157 161 164 166 167 170 173 177 179 182 185 188 191 195 199 205 211 218 223 227 230 231 234 238 244 252 259 264 270 273 276 279 283 287 292 295 295 294 293 294 296 297 297 296 295 295 295 295 295 296 296 294 294 292 290 290 289 289 289 289 289 289 290 292 294 296 296 297 298 299 299 299 300 302 305 306 306 305 304 303 301 300 299 299 298
163 168 168 169 173 176 177 180 183 185 189 193 195 198 202 206 213 218 226 234 238 238 240 248 259 269 276 281 284 287 289 291 295 298 298 298 297 296 295 297 298 298 298 299 299 299 299 298 298 297 296 294 292 290 289 288 288 288 289 289 289 290 291 293 294 295 295 295 296 297 298 299 300 302 304 305 304 303 302 301 301 300 300 299 298
172 175 177 177 180 181 181 183 187 191 195 197 199 203 208 213 218 225 234 244 250 253 257 266 277 284 286 287 288 287 286 287 289 288 287 288 289 291 294 298 301 302 302 304 305 306 305 304 303 301 299 298 297 295 294 293 293 293 294 294 295 296 298 299 300 299 299 299 299 299 300 301 303 305 306 305 304 303 303 302 303 303 303 302 301
181 182 182 183 183 183 183 185 189 195 200 204 206 211 216 222 230 237 243 250 256 263 272 283 292 293 291 291 289 283 281 284 287 289 291 294 295 296 298 300 300 301 302 302 303 303 302 301 300 300 300 300 299 298 297 297 297 298 298 299 300 302 303 304 305 305 305 305 306 306 307 308 309 309 309 307 306 306 306 306 306 306 306 305 303
185 184 183 183 183 184 184 185 189 196 204 212 222 229 234 242 249 255 260 265 272 284 299 310 311 305 299 294 287 281 282 287 290 293 296 300 303 305 307 307 307 306 305 304 303 302 300 300 299 300 300 300 300 299 298 298 298 298 299 300 301 302 303 304 305 306 307 308 309 309 310 310 310 310 309 308 309 309 309 309 309 309 308 308 306
186 186 183 181 181 183 184 186 192 201 210 221 234 246 254 261 265 268 272 280 289 300 309 312 310 304 299 294 290 290 294 297 300 303 307 310 312 312 312 311 310 309 307 306 305 303 302 301 301 300 300 299 299 298 298 298 298 299 300 300 301 301 302 303 304 305 306 306 307 307 307 308 308 308 308 308 309 310 309 309 308 308 309 309 309
180 179 180 182 184 186 190 196 204 214 223 231 240 249 255 262 267 270 275 281 289 296 303 307 305 300 296 295 296 299 301 303 306 310 313 313 313 312 311 309 308 306 305 305 304 304 304 304 303 303 303 302 301 301 300 300 300 299 299 299 299 300 300 301 302 302 303 303 303 304 305 306 307 307 307 308 308 308 307 306 306 306 307 308 309
172 173 180 191 196 198 203 211 218 226 232 236 241 245 249 255 261 268 275 282 288 297 305 307 305 302 302 304 305 305 307 310 312 315 316 316 315 313 312 310 309 307 306 306 305 305 305 305 305 304 304 303 303 302 301 300 299 298 297 297 297 297 298 298 299 299 300 300 301 303 304 305 306 306 306 306 306 305 304 304 304 304 305 307 309
173 176 183 195 203 208 214 220 226 232 235 237 240 245 250 256 262 270 279 287 296 306 311 310 308 309 309 309 310 310 311 313 315 316 316 316 314 313 313 312 311 310 309 309 309 309 309 308 307 306 305 303 303 301 300 299 298 297 296 296 296 296 297 297 298 298 299 300 301 303 303 304 304 304 303 302 301 301 301 302 303 304 305 307 309
182 184 191 199 206 214 222 228 234 239 240 242 247 253 260 266 270 275 282 289 298 306 308 307 308 308 308 308 309 310 311 312 313 314 314 314 314 314 314 313 312 311 311 312 312 313 313 312 310 308 307 305 303 302 300 299 298 297 297 297 297 298 298 298 299 300 300 301 302 303 302 302 301 300 299 298 298 299 301 303 303 304 305 306 307
193 192 198 206 211 220 230 236 242 247 247 248 252 258 265 271 273 274 279 287 295 303 307 307 306 305 305 306 308 309 310 312 313 314 315 316 316 315 313 312 312 312 313 315 316 316 316 315 313 312 311 309 306 305 304 302 301 300 299 299 299 299 299 300 300 301 301 301 301 300 300 299 298 296 296 296 297 299 301 301 301 301 302 303 304
204 205 212 219 225 232 236 237 241 247 250 252 256 260 264 268 270 276 285 294 302 307 307 304 303 304 306 309 311 313 314 314 314 315 315 315 314 312 310 310 312 314 317 319 319 319 318 317 316 315 313 311 309 307 306 305 303 302 301 301 301 301 301 301 301 301 300 299 299 298 297 297 296 296 296 297 297 298 298 299 299 301 303 304 305
218 229 237 241 241 242 242 242 244 247 251 255 258 260 265 272 278 286 294 300 306 308 307 306 309 311 312 312 313 313 312 312 312 312 311 311 311 311 311 313 316 320 322 323 322 322 321 320 318 317 315 313 311 309 308 307 306 306 305 305 304 304 304 304 304 303 303 302 302 302 301 300 299 298 298 298 298 298 298 300 303 306 307 307 307
222 231 238 243 245 246 250 254 256 257 260 264 265 267 270 275 280 285 287 288 292 297 298 299 302 303 303 304 306 308 310 312 313 312 313 315 316 317 319 322 324 325 326 325 324 323 321 320 318 317 316 314 312 311 310 309 309 308 308 307 307 308 309 309 309 308 308 307 307 306 305 303 301 300 299 298 299 300 302 305 308 309 309 308 307
232 234 239 246 253 258 263 267 270 273 276 276 273 271 270 270 271 274 277 282 287 290 290 290 293 296 300 304 308 312 315 316 316 316 317 319 320 322 324 325 325 325 324 323 321 319 318 317 316 315 314 313 312 311 311 311 310 309 309 309 310 311 312 311 311 311 311 311 311 309 308 306 304 303 302 302 303 305 307 309 311 311 310 310 309
255 254 252 255 260 265 268 270 272 276 277 273 268 267 267 269 271 274 278 284 288 289 290 293 298 304 308 311 312 314 315 316 316 316 318 319 320 322 322 322 321 321 320 319 318 317 317 316 315 314 313 313 312 312 312 312 311 311 311 311 311 311 311 311 312 313 314 314 313 312 310 310 308 306 306 307 308 310 311 312 312 312 311 311 310
261 262 263 264 267 271 275 276 277 278 276 272 268 267 268 272 276 280 284 287 289 290 292 296 302 308 312 313 314 316 318 319 319 320 321 322 322 321 321 319 318 317 316 315 315 316 316 315 314 313 312 312 311 311 311 310 310 310 310 310 309 309 309 311 313 315 316 316 314 312 312 311 310 310 311 312 313 314 315 315 314 313 312 311 309
Height
3202 3204 3205 3207 3208 3210 3211 3212 3214 3214 3215 3216 3217 3218 3218 3219 3220 3220 3220 3221 3221 3221 3221 3221 3221 3222 3222 3222 3222 3223 3223 3223 3224 3224 3224 3224 3224 3224 3224 3224 3224 3224 3224 3223 3223 3223 3222 3222 3222 3222 3221 3220 3220 3220 3220 3219 3219 3219 3219 3219 3218 3218 3217 3216 3216 3215 3214 3214 3213 3212 3211 3210 3209 3208 3207 3205 3204 3202 3201 3200 3200 3199 3198 3197 3196
3201 3203 3204 3205 3207 3208 3210 3211 3212 3213 3214 3215 3215 3216 3217 3218 3218 3218 3219 3219 3219 3219 3220 3220 3220 3220 3220 3220 3221 3221 3222 3222 3222 3222 3223 3223 3223 3223 3223 3223 3223 3223 3223 3222 3222 3222 3221 3221 3221 3221 3220 3219 3219 3219 3219 3219 3218 3218 3218 3218 3217 3217 3216 3215 3215 3214 3214 3213 3212 3211 3210 3209 3208 3207 3206 3204 3203 3201 3200 3199 3199 3198 3196 3195 3195
3200 3201 3203 3204 3205 3207 3208 3209 3210 3211 3212 3213 3214 3215 3215 3216 3216 3216 3217 3217 3217 3217 3217 3217 3217 3218 3218 3219 3219 3220 3220 3221 3221 3222 3222 3222 3222 3222 3222 3222 3222 3221 3221 3221 3221 3221 3221 3220 3220 3220 3219 3219 3219 3218 3218 3218 3218 3218 3217 3217 3216 3216 3215 3214 3213 3213 3212 3212 3210 3209 3208 3207 3206 3205 3204 3203 3201 3200 3199 3198 3197 3196 3195 3194 3193
3198 3199 3201 3202 3203 3204 3206 3207 3208 3209 3210 3211 3212 3213 3213 3214 3214 3215 3215 3215 3215 3215 3216 3216 3216 3216 3215 3215 3215 3216 3217 3217 3218 3220 3221 3221 3221 3221 3221 3221 3221 3221 3220 3220 3220 3220 3220 3220 3219 3219 3219 3218 3218 3218 3218 3218 3217 3217 3216 3216 3215 3214 3213 3213 3212 3211 3210 3210 3209 3208 3206 3206 3204 3203 3202 3201 3200 3198 3197 3196 3195 3194 3193 3192 3191
3196 3197 3198 3200 3201 3202 3203 3204 3206 3207 3208 3209 3210 3211 3212 3212 3212 3213 3213 3213 3213 3214 3214 3213 3212 3211 3211 3213 3215 3216 3217 3217 3218 3218 3220 3220 3219 3220 3220 3220 3219 3219 3219 3219 3219 3219 3219 3218 3218 3218 3217 3217 3217 3216 3216 3216 3216 3215 3215 3214 3213 3213 3212 3211 3210 3209 3209 3208 3208 3206 3205 3204 3203 3202 3201 3200 3198 3197 3196 3194 3193 3192 3191 3190 3189
3193 3195 3196 3197 3198 3200 3201 3202 3203 3205 3206 3207 3208 3209 3209 3210 3210 3211 3211 3211 3212 3212 3211 3211 3211 3212 3214 3217 3218 3219 3220 3220 3220 3219 3219 3219 3218 3218 3218 3218 3218 3218 3218 3218 3217 3217 3217 3217 3217 3216 3216 3216 3215 3215 3215 3214 3214 3213 3213 3212 3212 3211 3210 3209 3208 3207 3207 3206 3206 3205 3203 3202 3201 3200 3199 3198 3197 3196 3194 3193 3192 3190 3189 3189 3187
3191 3192 3193 3195 3196 3197 3199 3200 3201 3203 3204 3205 3206 3207 3207 3208 3209 3209 3209 3209 3210 3210 3210 3211 3213 3215 3216 3216 3216 3217 3217 3218 3218 3217 3217 3217 3217 3217 3217 3217 3217 3217 3217 3216 3216 3216 3216 3216 3216 3216 3215 3215 3214 3214 3214 3213 3212 3212 3211 3210 3210 3209 3208 3207 3206 3206 3205 3204 3203 3203 3202 3201 3199 3198 3197 3196 3195 3194 3193 3192 3191 3189 3188 3187 3185
3188 3189 3191 3192 3193 3195 3197 3198 3200 3201 3202 3203 3203 3204 3205 3206 3207 3207 3207 3207 3208 3209 3209 3211 3212 3213 3214 3214 3214 3214 3214 3215 3215 3215 3215 3215 3215 3215 3215 3215 3215 3215 3215 3215 3215 3215 3215 3215 3215 3215 3215 3214 3213 3213 3212 3212 3211 3210 3209 3209 3208 3207 3206 3205 3204 3203 3202 3202 3201 3200 3199 3199 3198 3196 3195 3194 3193 3192 3191 3190 3189 3188 3186 3185 3183
3185 3186 3188 3190 3191 3193 3194 3196 3197 3198 3199 3200 3201 3202 3203 3204 3205 3205 3205 3205 3206 3207 3209 3210 3210 3211 3212 3212 3212 3212 3212 3212 3212 3213 3213 3213 3213 3213 3213 3213 3213 3213 3213 3214 3214 3214 3214 3214 3214 3214 3213 3213 3212 3212 3211 3210 3209 3209 3208 3207 3206 3204 3203 3202 3201 3200 3199 3199 3198 3198 3197 3196 3195 3194 3193 3192 3191 3190 3189 3188 3187 3186 3184 3183 3181
3181 3183 3185 3187 3189 3190 3192 3193 3194 3195 3196 3197 3198 3200 3201 3202 3203 3203 3203 3204 3205 3206 3207 3208 3208 3209 3210 3210 3210 3210 3210 3210 3211 3210 3211 3211 3211 3211 3212 3212 3212 3212 3212 3212 3213 3213 3212 3212 3212 3212 3211 3211 3211 3210 3209 3208 3208 3207 3206 3205 3203 3202 3201 3200 3199 3198 3197 3196 3195 3194 3194 3193 3193 3191 3190 3189 3188 3187 3186 3185 3184 3183 3181 3180 3179
3178 3180 3182 3184 3185 3186 3188 3189 3191 3192 3194 3195 3196 3198 3199 3200 3200 3200 3201 3202 3203 3204 3205 3206 3207 3207 3208 3208 3208 3208 3208 3209 3209 3209 3209 3209 3209 3209 3210 3210 3210 3210 3210 3211 3211 3211 3211 3210 3210 3210 3209 3209 3208 3208 3207 3206 3205 3204 3203 3202 3201 3200 3198 3198 3197 3196 3194 3193 3192 3191 3190 3189 3189 3188 3186 3185 3184 3183 3182 3181 3181 3180 3178 3177 3176
3175 3177 3179 3181 3182 3183 3185 3186 3188 3190 3192 3193 3195 3196 3197 3197 3198 3198 3198 3200 3201 3201 3202 3204 3204 3205 3205 3206 3206 3207 3207 3207 3207 3207 3207 3207 3207 3207 3207 3207 3208 3208 3208 3208 3208 3208 3208 3208 3207 3207 3206 3206 3206 3205 3204 3203 3203 3202 3201 3200 3198 3197 3196 3195 3194 3193 3192 3190 3189 3188 3186 3185 3184 3184 3182 3181 3180 3180 3179 3178 3177 3176 3175 3174 3173
3172 3174 3176 3178 3180 3182 3183 3184 3186 3188 3190 3192 3193 3193 3194 3195 3195 3196 3196 3197 3197 3198 3199 3200 3201 3202 3203 3204 3204 3205 3205 3205 3205 3205 3205 3205 3205 3205 3205 3205 3206 3206 3206 3206 3206 3206 3206 3205 3205 3204 3204 3203 3203 3203 3202 3201 3200 3199 3198 3197 3196 3194 3193 3192 3190 3189 3188 3187 3186 3185 3183 3182 3181 3180 3179 3177 3176 3175 3175 3174 3173 3172 3171 3170 3170
3169 3171 3174 3176 3177 3179 3181 3182 3184 3186 3188 3189 3190 3191 3192 3192 3192 3193 3193 3193 3194 3195 3196 3197 3199 3200 3201 3202 3202 3202 3202 3202 3202 3202 3202 3202 3202 3202 3202 3203 3203 3203 3203 3203 3203 3203 3203 3202 3202 3201 3201 3201 3200 3199 3199 3198 3197 3196 3195 3194 3193 3192 3191 3189 3187 3186 3185 3184 3183 3182 3181 3179 3178 3177 3176 3174 3172 3171 3171 3170 3170 3169 3168 3167 3166
3165 3167 3170 3172 3174 3176 3178 3180 3181 3183 3184 3186 3187 3188 3189 3189 3190 3190 3190 3191 3192 3192 3193 3194 3196 3197 3198 3199 3199 3199 3199 3199 3199 3199 3199 3199 3199 3199 3199 3200 3200 3200 3200 3200 3200 3200 3199 3199 3199 3198 3198 3197 3197 3196 3196 3195 3195 3194 3192 3191 3190 3189 3188 3186 3185 3183 3182 3181 3180 3179 3178 3177 3175 3174 3173 3171 3169 3168 3167 3167 3166 3166 3165 3164 3163
3161 3163 3165 3168 3170 3172 3174 3176 3178 3180 3181 3182 3183 3185 3186 3186 3187 3187 3188 3189 3189 3189 3190 3190 3191 3193 3194 3194 3194 3195 3195 3195 3196 3196 3195 3195 3195 3195 3195 3196 3196 3197 3196 3196 3196 3196 3196 3196 3196 3195 3195 3194 3194 3194 3193 3193 3192 3191 3190 3188 3187 3186 3185 3184 3183 3181 3180 3179 3178 3177 3176 3175 3173 3172 3170 3169 3168 3166 3165 3164 3163 3162 3161 3161 3161
3156 3159 3161 3163 3165 3168 3170 3172 3175 3177 3178 3179 3181 3182 3182 3183 3184 3185 3185 3184 3184 3186 3186 3186 3187 3188 3188 3189 3189 3190 3190 3191 3191 3191 3192 3191 3191 3191 3191 3191 3192 3192 3192 3192 3193 3194 3193 3193 3193 3192 3192 3192 3192 3191 3191 3190 3189 3188 3187 3186 3184 3183 3182 3181 3180 3179 3178 3177 3175 3174 3173 3172 3171 3169 3168 3167 3165 3164 3163 3162 3161 3160 3158 3157 3157
3152 3154 3157 3159 3161 3164 3166 3168 3171 3173 3175 3177 3178 3178 3179 3180 3182 3182 3181 3179 3181 3184 3185 3184 3184 3184 3184 3184 3185 3185 3186 3186 3186 3187 3187 3187 3187 3186 3187 3187 3187 3187 3187 3189 3190 3191 3190 3190 3190 3190 3190 3189 3189 3188 3188 3187 3186 3185 3184 3183 3182 3180 3179 3178 3177 3176 3175 3174 3173 3172 3171 3169 3168 3167 3166 3164 3163 3162 3161 3159 3158 3157 3156 3154 3153
3148 3150 3153 3156 3157 3160 3163 3165 3167 3170 3171 3173 3174 3175 3175 3175 3176 3178 3180 3179 3181 3184 3183 3181 3181 3181 3180 3180 3180 3180 3181 3181 3182 3182 3183 3183 3183 3182 3182 3183 3183 3182 3183 3185 3187 3187 3187 3188 3187 3187 3187 3187 3186 3186 3185 3184 3183 3182 3181 3180 3179 3178 3177 3176 3175 3175 3174 3173 3171 3170 3169 3167 3166 3164 3163 3162 3161 3160 3158 3157 3156 3154 3153 3152 3150
3148 3149 3151 3152 3154 3156 3159 3162 3164 3166 3167 3168 3170 3170 3170 3169 3171 3176 3180 3180 3180 3181 3180 3178 3178 3177 3175 3175 3176 3176 3176 3176 3177 3178 3178 3179 3178 3177 3176 3177 3179 3179 3180 3183 3184 3184 3185 3185 3185 3184 3184 3184 3184 3183 3182 3181 3180 3179 3178 3177 3177 3176 3175 3174 3174 3173 3172 3171 3170 3169 3168 3166 3164 3163 3162 3160 3159 3158 3156 3155 3154 3152 3151 3149 3148
3144 3146 3147 3147 3150 3153 3155 3158 3160 3162 3164 3165 3166 3166 3167 3169 3171 3174 3177 3177 3177 3178 3176 3175 3173 3171 3168 3168 3170 3171 3171 3171 3171 3173 3174 3173 3173 3173 3173 3174 3176 3177 3179 3180 3182 3182 3183 3183 3182 3182 3182 3181 3181 3180 3180 3179 3178 3177 3177 3176 3174 3173 3173 3173 3172 3171 3170 3169 3168 3167 3165 3164 3163 3161 3160 3159 3157 3156 3154 3153 3152 3150 3149 3147 3146
3139 3141 3142 3143 3147 3150 3151 3154 3157 3158 3161 3162 3161 3162 3166 3169 3170 3171 3173 3174 3173 3173 3173 3172 3171 3168 3164 3164 3167 3169 3167 3166 3166 3166 3166 3166 3168 3170 3171 3171 3173 3175 3176 3178 3179 3179 3180 3179 3179 3179 3179 3178 3178 3178 3177 3177 3176 3176 3175 3174 3173 3172 3172 3171 3170 3169 3167 3166 3165 3164 3163 3162 3160 3159 3158 3156 3155 3154 3152 3151 3150 3148 3147 3146 3145
3136 3137 3138 3141 3145 3147 3148 3150 3153 3155 3158 3159 3159 3160 3163 3165 3167 3169 3171 3169 3169 3169 3169 3169 3168 3166 3164 3164 3165 3166 3166 3165 3164 3163 3162 3163 3165 3167 3168 3169 3170 3172 3173 3175 3176 3177 3177 3176 3176 3176 3176 3176 3176 3175 3175 3175 3175 3175 3174 3173 3172 3171 3170 3169 3167 3166 3165 3164 3163 3161 3160 3159 3158 3156 3155 3154 3153 3151 3150 3149 3148 3146 3145 3144 3143
3134 3136 3138 3140 3141 3143 3145 3147 3150 3153 3155 3157 3158 3159 3161 3162 3165 3167 3167 3165 3165 3166 3167 3167 3166 3165 3163 3162 3162 3162 3163 3164 3164 3163 3163 3163 3165 3166 3167 3168 3169 3170 3171 3173 3173 3174 3174 3173 3173 3173 3173 3173 3173 3173 3173 3174 3174 3174 3173 3172 3171 3169 3168 3166 3165 3164 3163 3161 3160 3159 3157 3156 3155 3154 3152 3151 3150 3149 3148 3146 3145 3144 3143 3142 3141
3133 3135 3137 3138 3138 3140 3142 3145 3148 3151 3153 3155 3156 3158 3160 3162 3163 3164 3164 3164 3165 3165 3165 3165 3165 3164 3163 3162 3161 3160 3161 3161 3162 3163 3163 3164 3165 3166 3167 3167 3168 3169 3170 3170 3171 3171 3171 3171 3171 3171 3171 3171 3171 3171 3172 3172 3173 3173 3172 3170 3168 3166 3165 3164 3163 3162 3161 3159 3158 3157 3155 3154 3152 3151 3150 3149 3148 3146 3145 3144 3143 3142 3141 3140 3138
3131 3133 3134 3136 3136 3138 3140 3143 3146 3148 3149 3151 3153 3155 3158 3161 3162 3163 3163 3164 3164 3164 3164 3164 3164 3164 3163 3163 3162 3161 3161 3161 3162 3163 3163 3164 3165 3166 3167 3167 3167 3168 3168 3168 3169 3169 3170 3170 3170 3170 3169 3169 3169 3170 3170 3170 3170 3170 3169 3167 3165 3164 3163 3162 3161 3160 3158 3157 3155 3154 3153 3152 3150 3149 3148 3146 3145 3144 3143 3142 3141 3139 3138 3137 3135
3128 3129 3131 3132 3133 3135 3137 3140 3142 3144 3147 3150 3152 3155 3158 3160 3161 3162 3162 3163 3163 3163 3164 3164 3164 3164 3164 3164 3163 3162 3162 3162 3162 3163 3163 3164 3165 3165 3166 3166 3166 3166 3167 3167 3168 3169 3169 3169 3169 3168 3168 3167 3167 3167 3167 3166 3166 3166 3164 3163 3162 3161 3159 3158 3157 3156 3154 3153 3152 3151 3149 3148 3147 3146 3144 3143 3142 3141 3140 3139 3138 3136 3135 3134 3132
3127 3127 3128 3129 3131 3134 3136 3139 3141 3144 3148 3151 3153 3155 3157 3159 3160 3161 3162 3162 3162 3163 3163 3164 3164 3165 3164 3164 3164 3164 3163 3164 3164 3164 3164 3164 3164 3164 3165 3165 3165 3166 3166 3167 3167 3168 3168 3168 3167 3167 3166 3165 3165 3164 3163 3163 3162 3161 3160 3159 3158 3157 3156 3155 3153 3152 3151 3150 3149 3147 3146 3145 3143 3142 3140 3139 3138 3137 3135 3134 3133 3132 3131 3130 3128
3128 3129 3130 3132 3134 3136 3138 3141 3143 3146 3149 3151 3154 3156 3158 3159 3160 3161 3161 3162 3162 3163 3163 3163 3163 3164 3164 3164 3164 3164 3164 3165 3165 3165 3164 3164 3164 3164 3164 3164 3164 3165 3165 3165 3165 3165 3165 3165 3165 3164 3164 3163 3162 3162 3161 3160 3159 3158 3157 3156 3154 3153 3152 3151 3150 3149 3148 3147 3145 3144 3143 3141 3139 3138 3136 3135 3133 3132 3131 3130 3129 3128 3127 3125 3124
3131 3132 3133 3135 3137 3139 3141 3143 3145 3148 3150 3152 3155 3156 3158 3159 3160 3161 3162 3162 3162 3162 3163 3163 3163 3163 3163 3163 3163 3164 3164 3164 3165 3164 3164 3164 3164 3164 3164 3163 3163 3163 3163 3163 3163 3163 3163 3163 3162 3162 3161 3161 3160 3159 3158 3157 3156 3155 3154 3152 3151 3150 3149 3148 3146 3145 3144 3143 3141 3140 3139 3137 3136 3134 3133 3131 3130 3128 3127 3126 3125 3124 3123 3122 3121
3134 3135 3136 3137 3139 3141 3143 3145 3147 3149 3151 3153 3155 3157 3158 3160 3160 3161 3161 3162 3162 3162 3162 3162 3162 3162 3162 3163 3163 3164 3164 3164 3164 3164 3163 3163 3163 3163 3162 3162 3162 3162 3162 3162 3161 3161 3161 3160 3160 3159 3159 3158 3157 3156 3155 3154 3153 3152 3150 3149 3148 3146 3145 3144 3143 3141 3140 3139 3138 3136 3135 3134 3132 3131 3129 3128 3127 3125 3124 3123 3122 3120 3119 3118 3117
3135 3136 3137 3138 3140 3142 3144 3146 3148 3150 3152 3153 3155 3156 3158 3159 3159 3160 3160 3161 3161 3161 3161 3162 3162 3162 3162 3162 3163 3163 3163 3163 3163 3163 3163 3163 3162 3162 3161 3160 3160 3160 3160 3160 3159 3159 3158 3158 3157 3157 3156 3155 3154 3153 3152 3151 3150 3149 3147 3146 3145 3143 3142 3140 3139 3138 3137 3136 3134 3133 3132 3131 3130 3128 3127 3125 3123 3122 3120 3119 3118 3117 3115 3114 3113
3136 3137 3138 3139 3140 3142 3144 3146 3147 3149 3151 3152 3154 3155 3156 3157 3158 3159 3159 3160 3160 3160 3161 3161 3161 3161 3161 3162 3162 3162 3162 3162 3162 3162 3162 3161 3161 3161 3160 3159 3159 3159 3158 3158 3157 3157 3156 3156 3155 3154 3153 3152 3152 3151 3149 3148 3147 3145 3144 3143 3141 3139 3138 3137 3136 3135 3134 3132 3131 3130 3129 3128 3126 3125 3123 3122 3120 3118 3116 3115 3114 3112 3111 3110 3108
3136 3137 3139 3140 3141 3142 3144 3145 3147 3149 3150 3152 3153 3154 3155 3156 3157 3158 3158 3159 3159 3160 3160 3160 3160 3160 3161 3161 3161 3161 3161 3161 3161 3161 3160 3160 3160 3159 3159 3158 3157 3157 3157 3156 3156 3155 3154 3153 3152 3152 3151 3150 3149 3148 3147 3145 3144 3142 3141 3139 3137 3136 3134 3133 3132 3132 3130 3129 3128 3127 3126 3124 3123 3122 3120 3118 3116 3114 3113 3111 3110 3108 3107 3105 3104
3137 3138 3139 3140 3142 3143 3144 3146 3147 3149 3150 3151 3153 3154 3155 3155 3156 3156 3157 3157 3158 3159 3159 3159 3159 3160 3160 3160 3160 3159 3159 3159 3159 3159 3159 3159 3158 3157 3157 3156 3155 3155 3154 3153 3153 3152 3152 3151 3150 3149 3148 3148 3146 3145 3144 3142 3141 3139 3137 3136 3134 3132 3131 3130 3130 3129 3128 3126 3125 3124 3122 3121 3119 3117 3116 3114 3112 3111 3109 3107 3106 3104 3102 3101 3099
3138 3139 3140 3141 3142 3143 3145 3146 3147 3148 3149 3150 3152 3153 3154 3154 3155 3155 3156 3156 3157 3157 3158 3158 3158 3159 3158 3158 3158 3158 3158 3158 3158 3158 3157 3157 3156 3155 3154 3154 3153 3152 3151 3150 3149 3149 3148 3148 3147 3146 3145 3144 3143 3142 3141 3139 3137 3136 3134 3132 3131 3129 3128 3127 3126 3125 3124 3123 3122 3120 3119 3117 3115 3113 3111 3110 3108 3106 3105 3103 3101 3100 3098 3096 3094
3138 3139 3141 3142 3143 3144 3145 3146 3147 3148 3149 3150 3151 3151 3152 3153 3154 3154 3154 3155 3155 3156 3156 3157 3157 3157 3157 3157 3157 3156 3156 3156 3156 3156 3155 3154 3154 3153 3152 3151 3150 3149 3147 3146 3145 3145 3144 3143 3143 3142 3141 3140 3139 3138 3136 3135 3133 3131 3130 3128 3126 3125 3124 3123 3122 3121 3120 3119 3117 3116 3114 3113 3111 3109 3107 3105 3104 3102 3101 3099 3097 3095 3093 3091 3090
3139 3140 3141 3142 3143 3144 3145 3146 3147 3147 3148 3149 3150 3151 3151 3152 3152 3153 3153 3153 3153 3154 3155 3156 3157 3156 3156 3155 3155 3154 3153 3153 3153 3153 3153 3152 3151 3150 3149 3148 3147 3146 3145 3144 3143 3142 3141 3140 3139 3138 3137 3136 3135 3133 3132 3130 3129 3127 3125 3124 3122 3120 3119 3118 3117 3116 3114 3113 3112 3110 3109 3107 3105 3103 3102 3100 3099 3098 3096 3094 3092 3090 3089 3087 3085
3139 3140 3141 3142 3143 3144 3145 3146 3147 3147 3148 3148 3149 3149 3150 3150 3150 3151 3151 3151 3152 3153 3154 3155 3155 3154 3154 3153 3152 3152 3151 3151 3151 3150 3150 3149 3148 3147 3145 3145 3144 3143 3142 3141 3140 3138 3137 3136 3135 3134 3133 3132 3131 3129 3128 3126 3125 3123 3122 3120 3118 3117 3115 3114 3112 3111 3109 3108 3106 3105 3103 3102 3100 3098 3096 3095 3093 3092 3090 3089 3087 3085 3083 3082 3080
3139 3140 3141 3142 3143 3144 3145 3146 3146 3147 3147 3148 3148 3148 3148 3149 3149 3149 3149 3150 3151 3152 3153 3153 3153 3152 3152 3151 3150 3149 3149 3148 3148 3147 3147 3146 3145 3144 3143 3142 3141 3140 3138 3137 3136 3135 3134 3132 3131 3130 3129 3128 3127 3125 3124 3123 3121 3120 3118 3116 3115 3113 3112 3110 3109 3107 3106 3104 3102 3101 3099 3097 3096 3094 3092 3090 3089 3087 3086 3084 3082 3080 3079 3077 3075
3139 3140 3141 3142 3143 3144 3144 3145 3146 3146 3147 3147 3147 3148 3147 3147 3147 3147 3148 3149 3150 3151 3151 3151 3151 3150 3150 3149 3148 3147 3146 3146 3145 3145 3144 3143 3143 3142 3141 3140 3139 3138 3136 3135 3134 3132 3131 3129 3128 3126 3125 3124 3123 3122 3120 3119 3118 3116 3114 3113 3111 3110 3108 3106 3105 3103 3102 3100 3098 3096 3095 3093 3091 3090 3088 3086 3085 3083 3082 3080 3078 3076 3075 3073 3071
3139 3140 3140 3141 3142 3143 3144 3144 3145 3145 3146 3147 3147 3147 3147 3146 3146 3146 3147 3148 3149 3149 3149 3149 3149 3148 3147 3146 3145 3145 3144 3143 3142 3141 3141 3140 3140 3139 3138 3137 3136 3135 3133 3132 3131 3130 3128 3127 3125 3124 3122 3121 3119 3118 3117 3115 3114 3112 3111 3109 3107 3106 3104 3103 3101 3100 3098 3096 3094 3092 3090 3089 3087 3086 3084 3083 3081 3080 3078 3077 3075 3073 3071 3069 3068
3139 3139 3140 3140 3141 3142 3143 3144 3144 3145 3145 3146 3146 3146 3145 3145 3145 3145 3146 3146 3147 3147 3147 3147 3146 3146 3145 3144 3143 3142 3142 3141 3140 3139 3138 3137 3136 3136 3135 3134 3133 3131 3130 3129 3128 3126 3125 3123 3122 3121 3119 3118 3116 3115 3113 3112 3110 3108 3107 3105 3104 3102 3100 3099 3097 3095 3094 3092 3090 3088 3087 3085 3084 3082 3081 3079 3078 3077 3075 3074 3072 3070 3068 3066 3064
3138 3139 3139 3140 3141 3141 3142 3142 3143 3143 3144 3144 3144 3144 3144 3144 3144 3144 3144 3145 3145 3145 3145 3145 3144 3144 3143 3142 3142 3141 3140 3139 3138 3137 3136 3135 3134 3133 3132 3130 3129 3128 3127 3126 3124 3123 3121 3119 3118 3117 3115 3114 3113 3111 3109 3107 3106 3104 3103 3101 3100 3098 3096 3095 3093 3091 3090 3088 3086 3085 3083 3081 3080 3079 3078 3076 3075 3074 3072 3071 3069 3067 3066 3064 3062
3137 3138 3138 3139 3140 3140 3141 3141 3141 3142 3142 3143 3143 3143 3142 3142 3142 3143 3143 3143 3144 3144 3143 3143 3143 3142 3142 3141 3140 3139 3138 3137 3136 3135 3134 3133 3131 3130 3129 3128 3126 3125 3124 3122 3121 3119 3117 3115 3114 3113 3111 3110 3108 3106 3105 3103 3102 3100 3099 3097 3096 3094 3093 3091 3089 3088 3086 3084 3083 3081 3080 3078 3077 3076 3075 3073 3072 3071 3070 3068 3066 3065 3063 3061 3060
3136 3137 3138 3138 3139 3139 3140 3140 3140 3141 3141 3141 3142 3141 3141 3141 3141 3141 3141 3142 3142 3142 3142 3141 3140 3140 3139 3139 3138 3137 3136 3134 3133 3132 3131 3130 3129 3128 3127 3125 3124 3123 3121 3119 3117 3115 3114 3112 3111 3109 3108 3106 3104 3102 3100 3099 3097 3096 3095 3093 3092 3090 3088 3087 3085 3084 3082 3081 3079 3078 3076 3075 3074 3072 3071 3070 3069 3068 3066 3065 3063 3062 3060 3058 3056
3136 3136 3137 3137 3138 3138 3139 3139 3139 3140 3140 3140 3140 3140 3139 3139 3139 3139 3139 3140 3140 3140 3139 3139 3138 3137 3137 3136 3136 3135 3134 3133 3131 3130 3129 3128 3127 3126 3124 3123 3121 3120 3118 3116 3114 3112 3111 3109 3108 3106 3104 3103 3101 3099 3097 3095 3093 3092 3091 3089 3088 3086 3084 3083 3081 3080 3078 3077 3075 3074 3073 3071 3070 3069 3068 3067 3066 3064 3063 3061 3059 3058 3056 3054 3052
3136 3136 3136 3137 3137 3137 3137 3137 3138 3138 3138 3138 3138 3138 3137 3137 3137 3138 3138 3138 3138 3138 3138 3137 3137 3136 3136 3135 3134 3133 3132 3131 3129 3128 3126 3125 3124 3122 3120 3119 3117 3116 3114 3113 3111 3110 3108 3106 3104 3103 3101 3099 3097 3096 3094 3092 3090 3089 3087 3085 3084 3082 3081 3079 3077 3076 3074 3073 3072 3070 3069 3068 3067 3066 3064 3063 3062 3060 3059 3057 3056 3054 3052 3051 3049
3135 3135 3135 3135 3135 3135 3136 3136 3136 3136 3136 3136 3136 3136 3136 3136 3136 3136 3136 3136 3137 3137 3136 3136 3136 3135 3135 3133 3132 3131 3130 3129 3127 3125 3124 3122 3120 3118 3116 3115 3113 3112 3111 3110 3109 3108 3106 3104 3102 3100 3098 3096 3094 3092 3091 3089 3087 3085 3084 3082 3081 3079 3078 3076 3074 3073 3072 3070 3069 3068 3066 3065 3064 3063 3061 3060 3058 3057 3055 3054 3053 3051 3050 3048 3047
3133 3133 3134 3134 3134 3134 3134 3134 3134 3134 3135 3134 3134 3134 3134 3134 3134 3134 3134 3135 3135 3135 3135 3134 3134 3133 3132 3131 3130 3129 3128 3127 3125 3124 3122 3120 3118 3116 3115 3113 3111 3110 3109 3108 3107 3106 3104 3102 3100 3098 3095 3093 3091 3089 3087 3085 3084 3082 3081 3079 3078 3076 3075 3073 3072 3071 3069 3068 3067 3066 3064 3063 3062 3060 3059 3057 3055 3054 3053 3051 3050 3049 3047 3046 3044
3132 3132 3132 3132 3132 3132 3132 3132 3133 3133 3133 3133 3133 3132 3132 3132 3132 3132 3133 3133 3133 3133 3133 3132 3131 3131 3129 3128 3127 3126 3124 3123 3122 3120 3119 3117 3115 3114 3113 3111 3110 3109 3108 3106 3105 3104 3102 3100 3098 3096 3093 3091 3089 3087 3085 3083 3081 3079 3078 3076 3075 3074 3072 3071 3070 3069 3067 3066 3065 3063 3062 3061 3059 3058 3056 3054 3053 3051 3050 3049 3048 3046 3045 3043 3042